[[{"header":{"parameterUnit":"m.s-1","parameterCategory":2,"la1":30.2991,"la2":30.254,"lo1":-89.0895,"lo2":-89.0444,"dy":0.0017,"dx":0.0017,"nx":28,"ny":28,"refTime":"2023-07-22T03:00:00:Z","depth":"0","parameterNumber":2,"parameterNumberName":"U-component_of_CURRENTS"},"data":[0,0,0,0,0,0,0,0,0,0,0,0,0,0,0,0,0,0,0,0,0,0,0,0,0,0,0,0,0,0,0,0,0,0,0,0,0,0,0,0,0,0,0,0,0,0,0,0,0,0,0,0,0,0,0,0,0,0,0.3944,0.3947,0,0.4168,0.417,0.4172,0.4279,0.428,0.4281,0.4281,0.4453,0.4457,0.4461,0,0,0,0,0,0,0,0,0,0,0,0,0,0.3768,0.3769,0.3943,0.3947,0.3951,0.4168,0.417,0.4173,0.4279,0.428,0.4281,0.4282,0.4452,0.4457,0.4461,0,0,0,0,0,0,0,0,0,0,0,0,0,0.3895,0.3769,0.3943,0.4036,0.4047,0.4168,0.417,0.4173,0.4279,0.428,0.4281,0.4282,0.445,0.4456,0.4462,0.4479,0,0,0.448,0.4483,0,0,0,0,0,0,0,0,0.3888,0.39,0.4019,0.403,0.4043,0.4204,0.4172,0.4276,0.4279,0.4182,0.4281,0.4282,0.437,0.4382,0.4411,0.4487,0.4495,0.4481,0.4484,0.4487,0.4489,0,0,0,0,0,0,0,0.3878,0.3893,0.4024,0.4023,0.4037,0.4123,0.4139,0.4193,0.426,0.4191,0.4201,0.4239,0.4375,0.4405,0.4416,0.4497,0.448,0.4486,0.4489,0.4492,0.4694,0.4695,0,0,0,0,0,0,0.3858,0.3883,0.4017,0.4032,0.3975,0.4125,0.4143,0.4145,0.4261,0.4283,0.4238,0.4243,0.4395,0.4409,0.4423,0.4507,0.4487,0.4492,0.4496,0.4692,0.4694,0.4696,0,0,0,0,0,0,0.3852,0.3866,0.4008,0.3972,0.3997,0.4126,0.4128,0.4149,0.4186,0.4299,0.4318,0.4255,0.4396,0.4414,0.4484,0.4512,0.4495,0.45,0.469,0.4692,0.4695,0.4639,0,0,0,0,0,0,0.3845,0.3861,0.3856,0.3969,0.3998,0.4083,0.4128,0.4153,0.4212,0.4221,0.432,0.4337,0.4398,0.4475,0.449,0.452,0.4505,0.4687,0.4691,0.4694,0.4638,0.4639,0.464,0,0,0,0,0,0.3838,0.3864,0.3852,0.3871,0.3984,0.4085,0.4106,0.4198,0.4211,0.4232,0.43,0.4334,0.4508,0.448,0.4498,0.453,0.4686,0.469,0.4694,0.4638,0.4639,0.464,0,0,0,0,0,0,0.3801,0.3881,0.3871,0.3918,0.3982,0.4106,0.4151,0.4189,0.4258,0.4266,0.4344,0.4367,0.4445,0.4493,0.446,0.4603,0.4608,0.4615,0.4559,0.4561,0.4562,0.4542,0.451,0,0,0,0,0,0.3777,0.38,0.3882,0.3911,0.394,0.4024,0.4076,0.413,0.4213,0.4244,0.4308,0.439,0.4475,0.4518,0.4592,0.4654,0.4712,0.4694,0.4695,0.4695,0.4694,0.4799,0.4809,0.4709,0.4709,0.4709,0,0,0.3777,0.3818,0.3835,0.3902,0.3955,0.4003,0.4056,0.4135,0.4175,0.425,0.4312,0.4387,0.4491,0.4575,0.4615,0.4618,0.4756,0.47,0.4699,0.4699,0.4804,0.4814,0.4822,0.4712,0.4711,0.4711,0,0,0.3794,0.3806,0.3828,0.3871,0.3947,0.4002,0.4014,0.4114,0.4155,0.422,0.4298,0.4381,0.4487,0.458,0.4639,0.4685,0.4753,0.4718,0.4708,0.481,0.4818,0.4826,0.4911,0.4928,0.4722,0.4722,0.4722,0,0.3779,0.3808,0.3855,0.3883,0.3923,0.3988,0.4021,0.4078,0.4186,0.4218,0.4233,0.4416,0.4495,0.4621,0.4651,0.4686,0.475,0.4689,0.4808,0.4817,0.4826,0.4912,0.493,0.4719,0.472,0.472,0.472,0,0.3814,0.3827,0.3852,0.3883,0.3927,0.3978,0.4048,0.4087,0.4129,0.4188,0.4295,0.4407,0.4519,0.4568,0.4626,0.4745,0.4771,0.4789,0.4794,0.4832,0.4921,0.4941,0.4716,0.4717,0.4718,0.4718,0,0,0.3814,0.3859,0.3864,0.3855,0.393,0.3967,0.4022,0.4095,0.4124,0.4219,0.4279,0.4434,0.4487,0.4559,0.4651,0.4745,0.4868,0.4793,0.4799,0.4857,0.5091,0.5001,0.5015,0.4907,0.4911,0.4913,0.5126,0,0.3818,0.3838,0.3877,0.3895,0.3911,0.3966,0.4004,0.4072,0.4135,0.4204,0.4332,0.4425,0.4489,0.4548,0.4655,0.4836,0.4919,0.4808,0.5064,0.5071,0.497,0.5035,0.4869,0.5035,0.5146,0.5149,0.5152,0,0.3844,0.3849,0.3857,0.3869,0.388,0.3901,0.3952,0.3998,0.4112,0.4161,0.4274,0.4372,0.4558,0.4576,0.4882,0.4814,0.4938,0.5053,0.5065,0.5012,0.5019,0.5019,0.5068,0.4851,0.5183,0.5181,0.5178,0,0.3815,0.3837,0.3826,0.3836,0.387,0.3878,0.3902,0.3985,0.4018,0.414,0.4187,0.4393,0.4509,0.4715,0.4951,0.4937,0.5256,0.5268,0.5294,0.5289,0.5213,0.5194,0.5061,0.5434,0.5433,0.5433,0.5432,0,0.3816,0.3811,0.3801,0.38,0.3783,0.3824,0.3833,0.3882,0.3966,0.4012,0.4161,0.4252,0.4548,0.4757,0.496,0.5197,0.5271,0.5304,0.5343,0.5187,0.5165,0.5025,0.494,0.544,0.5439,0.5437,0.5436,0,0.3803,0.3797,0.3779,0.3777,0.377,0.3756,0.3773,0.3789,0.387,0.3943,0.3986,0.4197,0.4468,0.4738,0.5083,0.5192,0.5277,0.5471,0.5254,0.526,0.5051,0.4972,0.4827,0.4707,0.5556,0.5555,0.5554,0,0.381,0.3791,0.3745,0.3713,0.3709,0.3692,0.3687,0.374,0.3763,0.391,0.3951,0.4193,0.4358,0.4807,0.5077,0.5396,0.5221,0.5349,0.5274,0.501,0.4955,0.4776,0.4673,0.5174,0.5171,0.5168,0.5165,0,0.3823,0.3785,0.3755,0.3677,0.3643,0.3605,0.3602,0.3603,0.3682,0.3755,0.3876,0.4011,0.44,0.4628,0.498,0.5173,0.5041,0.529,0.5092,0.4694,0.4422,0.4334,0.5053,0.5137,0.514,0.5142,0.5144,0.5145,0.383,0.3783,0.3717,0.3629,0.3582,0.3519,0.3465,0.3496,0.352,0.359,0.3759,0.3906,0.4194,0.4683,0.4815,0.4845,0.4879,0.4758,0.4711,0.4574,0.4339,0.4967,0.5029,0.5031,0.5033,0.5035,0.5036,0,0.3822,0.375,0.3676,0.3551,0.3454,0.3453,0.3405,0.3346,0.3346,0.346,0.3558,0.3775,0.3958,0.4182,0.4365,0.4276,0.4175,0.415,0.3855,0.3811,0.4451,0.4307,0.4119,0.4119,0.4119,0.4119,0.412,0.412,0.3817,0.3717,0.3638,0.3451,0.3359,0.3219,0.3166,0.312,0.3151,0.3169,0.324,0.3372,0.3603,0.3733,0.3683,0.367,0.3407,0.3292,0.3268,0.3686,0.3737,0.3786,0.3624,0.3296,0.3296,0.2506,0.2499,0.2495]},{"header":{"parameterUnit":"m.s-1","parameterCategory":2,"la1":30.2991,"la2":30.254,"lo1":-89.0895,"lo2":-89.0444,"dy":0.0017,"dx":0.0017,"nx":28,"ny":28,"refTime":"2023-07-22T03:00:00:Z","depth":"0","parameterNumber":3,"parameterNumberName":"V-component_of_CURRENTS"},"data":[0,0,0,0,0,0,0,0,0,0,0,0,0,0,0,0,0,0,0,0,0,0,0,0,0,0,0,0,0,0,0,0,0,0,0,0,0,0,0,0,0,0,0,0,0,0,0,0,0,0,0,0,0,0,0,0,0,0,0.1316,0.1318,0,0.1356,0.1356,0.1356,0.1285,0.1283,0.1282,0.128,0.1146,0.1144,0.1142,0,0,0,0,0,0,0,0,0,0,0,0,0,0.1263,0.1263,0.1316,0.1318,0.1319,0.1356,0.1356,0.1355,0.1285,0.1283,0.1281,0.128,0.1147,0.1145,0.1142,0,0,0,0,0,0,0,0,0,0,0,0,0,0.1283,0.1263,0.1316,0.1295,0.1295,0.1356,0.1356,0.1355,0.1285,0.1283,0.1281,0.1279,0.1148,0.1145,0.1142,0.1166,0,0,0.1132,0.113,0,0,0,0,0,0,0,0,0.1282,0.1284,0.1297,0.1297,0.1296,0.1322,0.1289,0.1287,0.1286,0.1279,0.128,0.1278,0.1197,0.1189,0.1191,0.116,0.1154,0.1131,0.1129,0.1128,0.1127,0,0,0,0,0,0,0,0.1281,0.1283,0.1322,0.1299,0.1299,0.1314,0.1312,0.1288,0.1239,0.1279,0.1277,0.1297,0.1194,0.1194,0.1187,0.1152,0.1131,0.1129,0.1126,0.1125,0.1093,0.1094,0,0,0,0,0,0,0.1293,0.1281,0.1321,0.1324,0.1295,0.1317,0.1315,0.1308,0.1243,0.1235,0.1299,0.1294,0.1201,0.1191,0.1182,0.1187,0.1128,0.1125,0.1123,0.1092,0.1093,0.1094,0,0,0,0,0,0,0.1291,0.1295,0.132,0.1313,0.1318,0.132,0.1313,0.131,0.1309,0.1262,0.1248,0.1302,0.1199,0.1186,0.1155,0.1181,0.1123,0.112,0.109,0.1092,0.1094,0.121,0,0,0,0,0,0,0.1289,0.1294,0.1287,0.1313,0.1319,0.1352,0.1317,0.1313,0.133,0.1323,0.126,0.1245,0.1196,0.1161,0.1152,0.1176,0.1118,0.1089,0.1091,0.1093,0.1204,0.1215,0.1224,0,0,0,0,0,0.1287,0.1302,0.1286,0.1291,0.1311,0.1354,0.1358,0.1346,0.1332,0.1335,0.1292,0.1247,0.1167,0.1159,0.1149,0.1172,0.1088,0.1091,0.1093,0.12,0.1213,0.1224,0,0,0,0,0,0,0.1291,0.1298,0.128,0.1298,0.132,0.1345,0.136,0.136,0.1334,0.1322,0.1262,0.1245,0.1224,0.1187,0.118,0.1168,0.1121,0.1121,0.1206,0.1217,0.1227,0.1267,0.1115,0,0,0,0,0,0.1288,0.1291,0.1308,0.1327,0.1333,0.1347,0.1363,0.1364,0.1357,0.1344,0.1308,0.1266,0.1231,0.1214,0.1174,0.1178,0.1142,0.1185,0.1195,0.1204,0.1229,0.1189,0.1198,0.1102,0.1102,0.1102,0,0,0.1308,0.1309,0.1316,0.1328,0.1338,0.1368,0.1347,0.1384,0.1412,0.1334,0.1343,0.1295,0.1237,0.1229,0.1218,0.12,0.1213,0.1207,0.1215,0.1236,0.1193,0.1202,0.121,0.1104,0.1104,0.1103,0,0,0.1356,0.1335,0.1348,0.1362,0.1387,0.1398,0.1413,0.1436,0.1436,0.1451,0.1395,0.1373,0.1329,0.13,0.1277,0.1323,0.1259,0.1305,0.1397,0.1358,0.1365,0.1372,0.1344,0.1348,0.1318,0.1319,0.1319,0,0.1365,0.1384,0.1368,0.1387,0.1416,0.1414,0.1455,0.1466,0.1481,0.1498,0.146,0.1424,0.1369,0.1373,0.1384,0.1348,0.1316,0.1357,0.1372,0.1377,0.1382,0.1352,0.1354,0.1325,0.1324,0.1323,0.1323,0,0.1422,0.1435,0.1455,0.1462,0.149,0.1532,0.155,0.1571,0.1575,0.1591,0.1599,0.1537,0.1517,0.1497,0.1454,0.1471,0.1434,0.1382,0.1346,0.1399,0.1363,0.1363,0.1333,0.1331,0.1329,0.1328,0,0,0.1435,0.1479,0.1481,0.1499,0.1534,0.1565,0.1617,0.1666,0.1704,0.1704,0.175,0.1705,0.1683,0.1657,0.1602,0.1581,0.1579,0.151,0.1505,0.1493,0.1502,0.1433,0.1425,0.1524,0.1524,0.1525,0.1467,0,0.1475,0.1521,0.1547,0.1613,0.1637,0.1664,0.1714,0.1759,0.1782,0.1818,0.1793,0.1794,0.1741,0.1725,0.1704,0.1611,0.1583,0.16,0.1446,0.1442,0.1381,0.1425,0.1375,0.1315,0.1466,0.1466,0.1466,0,0.1503,0.1534,0.1593,0.1673,0.1688,0.1731,0.1807,0.1855,0.1909,0.1929,0.1951,0.1923,0.1922,0.1838,0.1752,0.1765,0.1652,0.1573,0.1567,0.1467,0.1373,0.1283,0.1308,0.1036,0.1465,0.1465,0.1465,0,0.1484,0.1567,0.1613,0.1635,0.1719,0.1762,0.1813,0.1882,0.1931,0.1992,0.2029,0.2026,0.2006,0.1909,0.1783,0.1756,0.1667,0.1594,0.1429,0.1423,0.1334,0.1319,0.1086,0.1508,0.1508,0.1508,0.1508,0,0.1492,0.153,0.1605,0.1621,0.1695,0.176,0.1839,0.1895,0.1979,0.2047,0.2073,0.2111,0.2016,0.1963,0.183,0.1659,0.17,0.1465,0.1408,0.1372,0.1362,0.1082,0.0986,0.1506,0.1507,0.1507,0.1507,0,0.1443,0.1492,0.1544,0.164,0.1675,0.1716,0.1839,0.19,0.199,0.2077,0.2101,0.2163,0.2113,0.2014,0.1851,0.1701,0.1413,0.1457,0.1437,0.1378,0.0951,0.0866,0.0683,0.0613,0.1266,0.1264,0.1263,0,0.1417,0.1435,0.1525,0.156,0.16,0.1681,0.1746,0.187,0.195,0.2105,0.2149,0.216,0.2182,0.1974,0.1734,0.1516,0.1332,0.1271,0.1199,0.0935,0.0798,0.0771,0.0725,0.1129,0.1127,0.1124,0.1123,0,0.1373,0.1396,0.1437,0.1503,0.1569,0.1662,0.1773,0.184,0.2,0.2103,0.2219,0.2257,0.21,0.1894,0.1614,0.1431,0.1106,0.1214,0.094,0.0684,0.0643,0.0545,0.1166,0.1104,0.1106,0.1107,0.1108,0.1109,0.1327,0.1342,0.1397,0.1457,0.154,0.1652,0.1722,0.1863,0.2002,0.2196,0.2241,0.2338,0.2037,0.1667,0.1395,0.082,0.0917,0.0609,0.0536,0.0537,0.0444,0.1032,0.0899,0.0899,0.09,0.09,0.0901,0,0.128,0.1316,0.1364,0.1449,0.1526,0.1594,0.1754,0.1847,0.2005,0.2201,0.2323,0.2228,0.1797,0.1367,0.0636,0.0208,0.0132,-0.0018,-0.0095,-0.0103,0.0389,0.035,0.0092,0.0093,0.0093,0.0093,0.0094,0.0094,0.1255,0.1284,0.1317,0.1421,0.149,0.1601,0.169,0.185,0.2012,0.2212,0.2296,0.2369,0.1975,0.0673,-0.0267,-0.0449,-0.0673,-0.0711,-0.0798,-0.0539,-0.0487,-0.0438,-0.0504,-0.0936,-0.0938,-0.1253,-0.1257,-0.126]}],[{"header":{"parameterUnit":"m.s-1","parameterCategory":2,"la1":30.2991,"la2":30.254,"lo1":-89.0895,"lo2":-89.0444,"dy":0.0017,"dx":0.0017,"nx":28,"ny":28,"refTime":"2023-07-22T03:00:00:Z","depth":"2","parameterNumber":2,"parameterNumberName":"U-component_of_CURRENTS"},"data":[0,0,0,0,0,0,0,0,0,0,0,0,0,0,0,0,0,0,0,0,0,0,0,0,0,0,0,0,0,0,0,0,0,0,0,0,0,0,0,0,0,0,0,0,0,0,0,0,0,0,0,0,0,0,0,0,0,0,0.1893,0.1893,0,0.1936,0.1937,0.1937,0.2088,0.2091,0.2094,0.2098,0.2368,0.2372,0.2376,0,0,0,0,0,0,0,0,0,0,0,0,0,0.1868,0.1868,0.1893,0.1893,0.1894,0.1936,0.1937,0.1937,0.2087,0.2091,0.2095,0.2099,0.2367,0.2371,0.2376,0,0,0,0,0,0,0,0,0,0,0,0,0,0.1892,0.1868,0.1893,0.1974,0.1982,0.1936,0.1937,0.1938,0.2086,0.2091,0.2096,0.2101,0.2365,0.2371,0.2377,0.2311,0,0,0.2395,0.2398,0,0,0,0,0,0,0,0,0.189,0.1892,0.1961,0.1968,0.1977,0.2012,0.2027,0.2074,0.2085,0.2046,0.2098,0.2104,0.2266,0.2281,0.2274,0.2324,0.2335,0.2396,0.2399,0.2402,0.2404,0,0,0,0,0,0,0,0.1888,0.1891,0.191,0.1962,0.1971,0.1984,0.1994,0.2035,0.2131,0.205,0.2061,0.2065,0.2273,0.2267,0.2282,0.2339,0.2396,0.2401,0.2405,0.2407,0.2566,0.2567,0,0,0,0,0,0,0.1882,0.1889,0.1908,0.1911,0.1946,0.1981,0.1991,0.1995,0.2126,0.2149,0.206,0.2072,0.2254,0.2275,0.2292,0.2476,0.2402,0.2407,0.2411,0.2566,0.2566,0.2567,0,0,0,0,0,0,0.1881,0.1883,0.1907,0.1902,0.1906,0.1976,0.1979,0.1993,0.2064,0.2131,0.216,0.2126,0.2259,0.2284,0.2413,0.2479,0.241,0.2416,0.2565,0.2566,0.2567,0.2682,0,0,0,0,0,0,0.188,0.1882,0.1925,0.1901,0.1906,0.1953,0.1974,0.1991,0.2054,0.2072,0.2195,0.2221,0.2265,0.2404,0.2419,0.2486,0.242,0.2564,0.2565,0.2566,0.2678,0.2687,0.2695,0,0,0,0,0,0.1879,0.1889,0.1927,0.1932,0.1949,0.1956,0.1962,0.2026,0.2053,0.2104,0.2189,0.2221,0.2421,0.241,0.2427,0.2498,0.2563,0.2565,0.2566,0.2674,0.2685,0.2695,0,0,0,0,0,0,0.1919,0.1904,0.1946,0.1963,0.2001,0.1984,0.2053,0.2049,0.2141,0.2195,0.2242,0.2274,0.2428,0.2415,0.2401,0.2537,0.249,0.2495,0.2566,0.2577,0.2586,0.2447,0.2425,0,0,0,0,0,0.1939,0.1915,0.1954,0.1959,0.2028,0.2047,0.2071,0.2097,0.2146,0.2194,0.2262,0.2335,0.2421,0.2469,0.255,0.2604,0.2539,0.2649,0.2658,0.2666,0.2559,0.2516,0.251,0.2572,0.2572,0.2572,0,0,0.1976,0.193,0.1949,0.1963,0.2027,0.2036,0.2081,0.2143,0.2115,0.2208,0.2271,0.2404,0.2453,0.256,0.2617,0.257,0.2638,0.2668,0.2675,0.256,0.2517,0.251,0.2504,0.2573,0.2572,0.2572,0,0,0.1912,0.2014,0.1976,0.201,0.2066,0.2082,0.2111,0.2162,0.2214,0.2277,0.235,0.2471,0.2596,0.2613,0.264,0.2708,0.2717,0.2797,0.2703,0.2669,0.2662,0.2655,0.2666,0.2658,0.2764,0.2764,0.2764,0,0.1966,0.1899,0.1979,0.1939,0.198,0.2099,0.2104,0.2129,0.2184,0.2235,0.2331,0.2495,0.2577,0.2613,0.2662,0.2724,0.2733,0.2684,0.2678,0.2669,0.2659,0.2671,0.2661,0.277,0.2769,0.2769,0.2768,0,0.1822,0.185,0.1863,0.1839,0.1894,0.1943,0.2012,0.2093,0.22,0.2218,0.2375,0.2483,0.2575,0.2643,0.2684,0.2676,0.2725,0.2736,0.2652,0.266,0.2674,0.2662,0.2778,0.2776,0.2775,0.2773,0,0,0.1729,0.1768,0.1767,0.1814,0.1875,0.1907,0.1941,0.202,0.2062,0.2184,0.2227,0.2376,0.25,0.2522,0.2618,0.2548,0.2566,0.2616,0.2612,0.2624,0.2549,0.2512,0.2495,0.2624,0.262,0.2616,0.2624,0,0.1628,0.1569,0.1577,0.1603,0.1679,0.1812,0.182,0.1897,0.2032,0.2115,0.2228,0.2346,0.2431,0.2555,0.2508,0.2583,0.2522,0.2563,0.2532,0.2529,0.2491,0.2472,0.2323,0.2307,0.2611,0.2609,0.2607,0,0.1471,0.1461,0.149,0.1592,0.1645,0.1651,0.1814,0.1824,0.195,0.2069,0.219,0.2316,0.234,0.2395,0.24,0.2461,0.2476,0.2469,0.2472,0.2341,0.2461,0.2325,0.2272,0.2585,0.2587,0.2589,0.259,0,0.1388,0.1412,0.1455,0.1488,0.1595,0.166,0.1726,0.1851,0.1907,0.2053,0.2156,0.2226,0.2327,0.2307,0.2405,0.2426,0.2367,0.2405,0.2345,0.2348,0.214,0.2128,0.2282,0.2282,0.2282,0.2282,0.2282,0,0.1274,0.1312,0.1454,0.1481,0.1557,0.1649,0.1732,0.1826,0.1935,0.2002,0.2151,0.2223,0.2306,0.2351,0.2368,0.235,0.2368,0.2264,0.2306,0.2192,0.2185,0.2331,0.2337,0.2282,0.2282,0.2282,0.2282,0,0.1187,0.1273,0.1343,0.148,0.1539,0.1608,0.1738,0.1779,0.1918,0.201,0.2068,0.2232,0.2323,0.2375,0.2369,0.2328,0.2285,0.2255,0.2147,0.2169,0.2296,0.2308,0.2152,0.215,0.2148,0.2147,0.2146,0,0.1125,0.1167,0.1342,0.141,0.1489,0.16,0.1658,0.178,0.1822,0.2014,0.2039,0.2192,0.2286,0.2297,0.2223,0.2191,0.2278,0.2019,0.1942,0.2205,0.2263,0.2278,0.2292,0.1778,0.1774,0.1771,0.1768,0,0.1013,0.1118,0.1176,0.1336,0.1437,0.1506,0.1612,0.1637,0.1775,0.1864,0.1998,0.2091,0.2149,0.2083,0.2055,0.1993,0.2014,0.1943,0.2215,0.1833,0.1851,0.191,0.1935,0.1737,0.174,0.1743,0.1744,0.1745,0.0945,0.0973,0.1101,0.1246,0.1357,0.1437,0.1478,0.1553,0.1618,0.1766,0.1859,0.194,0.191,0.1787,0.1756,0.1724,0.1792,0.172,0.173,0.1745,0.1698,0.171,0.1565,0.1567,0.1569,0.1571,0.1572,0,0.0856,0.0924,0.1007,0.1169,0.1256,0.1395,0.1457,0.1465,0.154,0.1624,0.1736,0.151,0.1512,0.1566,0.1452,0.1395,0.1365,0.1388,0.1374,0.1402,0.1428,0.1367,0.1146,0.1146,0.1145,0.1145,0,0,0.0821,0.0845,0.0894,0.1035,0.1209,0.1318,0.1379,0.1398,0.141,0.1361,0.1374,0.1455,0.1466,0.1264,0.1231,0.1231,0.131,0.1175,0.1504,0.1516,0.1542,0.1593,0.1526,0,0,0,0,0]},{"header":{"parameterUnit":"m.s-1","parameterCategory":2,"la1":30.2991,"la2":30.254,"lo1":-89.0895,"lo2":-89.0444,"dy":0.0017,"dx":0.0017,"nx":28,"ny":28,"refTime":"2023-07-22T03:00:00:Z","depth":"2","parameterNumber":3,"parameterNumberName":"V-component_of_CURRENTS"},"data":[0,0,0,0,0,0,0,0,0,0,0,0,0,0,0,0,0,0,0,0,0,0,0,0,0,0,0,0,0,0,0,0,0,0,0,0,0,0,0,0,0,0,0,0,0,0,0,0,0,0,0,0,0,0,0,0,0,0,-0.0612,-0.0615,0,-0.0782,-0.0783,-0.0784,-0.0797,-0.0796,-0.0796,-0.0795,-0.0825,-0.0827,-0.0828,0,0,0,0,0,0,0,0,0,0,0,0,0,-0.0339,-0.0343,-0.0612,-0.0615,-0.0618,-0.0782,-0.0783,-0.0784,-0.0797,-0.0796,-0.0795,-0.0795,-0.0825,-0.0827,-0.0828,0,0,0,0,0,0,0,0,0,0,0,0,0,-0.0466,-0.0344,-0.0611,-0.0654,-0.066,-0.0782,-0.0783,-0.0785,-0.0797,-0.0796,-0.0795,-0.0794,-0.0824,-0.0826,-0.0829,-0.0864,0,0,-0.0835,-0.0836,0,0,0,0,0,0,0,0,-0.0459,-0.0474,-0.0644,-0.0651,-0.0659,-0.0778,-0.0699,-0.0809,-0.0798,-0.0732,-0.0795,-0.0794,-0.0806,-0.0809,-0.0828,-0.0865,-0.0867,-0.0836,-0.0837,-0.0838,-0.0839,0,0,0,0,0,0,0,-0.045,-0.0468,-0.0666,-0.0648,-0.0657,-0.068,-0.0695,-0.072,-0.076,-0.0738,-0.0742,-0.0781,-0.0807,-0.0826,-0.0828,-0.0867,-0.0836,-0.0838,-0.0839,-0.084,-0.0897,-0.0897,0,0,0,0,0,0,-0.0454,-0.046,-0.0661,-0.0673,-0.0568,-0.0686,-0.0702,-0.0731,-0.0763,-0.0772,-0.0782,-0.0782,-0.0823,-0.0826,-0.083,-0.0743,-0.0838,-0.084,-0.0841,-0.0897,-0.0897,-0.0897,0,0,0,0,0,0,-0.0447,-0.047,-0.0654,-0.058,-0.0607,-0.0693,-0.0724,-0.0735,-0.0717,-0.0801,-0.0804,-0.0751,-0.0822,-0.0826,-0.0838,-0.0749,-0.0841,-0.0843,-0.0897,-0.0897,-0.0897,-0.0652,0,0,0,0,0,0,-0.0438,-0.0466,-0.0455,-0.058,-0.0612,-0.0677,-0.0727,-0.0739,-0.0752,-0.0751,-0.0776,-0.0781,-0.0821,-0.0835,-0.084,-0.0753,-0.0845,-0.0896,-0.0897,-0.0897,-0.066,-0.0644,-0.063,0,0,0,0,0,-0.0428,-0.0415,-0.0453,-0.0477,-0.0605,-0.0677,-0.069,-0.0742,-0.0751,-0.0722,-0.0768,-0.0778,-0.0841,-0.0837,-0.0843,-0.0754,-0.0896,-0.0897,-0.0897,-0.0666,-0.0647,-0.0631,0,0,0,0,0,0,-0.0277,-0.0421,-0.0464,-0.0491,-0.0562,-0.0682,-0.0646,-0.0715,-0.073,-0.0704,-0.0781,-0.0789,-0.0741,-0.0822,-0.0816,-0.0787,-0.0869,-0.0871,-0.0692,-0.0674,-0.066,-0.0726,-0.0847,0,0,0,0,0,-0.0251,-0.0299,-0.0414,-0.0445,-0.0433,-0.0533,-0.0559,-0.0609,-0.0668,-0.067,-0.071,-0.0752,-0.0759,-0.0775,-0.0788,-0.0794,-0.0894,-0.0751,-0.0736,-0.0722,-0.079,-0.0907,-0.0908,-0.0899,-0.0899,-0.0899,0,0,-0.0219,-0.0302,-0.0332,-0.042,-0.0443,-0.0478,-0.0535,-0.0546,-0.0602,-0.067,-0.0683,-0.067,-0.0744,-0.0718,-0.071,-0.0771,-0.0753,-0.0723,-0.0709,-0.0787,-0.0908,-0.0909,-0.0909,-0.0899,-0.0899,-0.0899,0,0,-0.0194,-0.0204,-0.0226,-0.0261,-0.0319,-0.0388,-0.0382,-0.0461,-0.0474,-0.0518,-0.0552,-0.0541,-0.0574,-0.062,-0.0648,-0.0591,-0.0641,-0.0543,-0.0542,-0.0649,-0.0651,-0.0654,-0.0658,-0.0664,-0.0568,-0.0568,-0.0567,0,-0.0137,-0.0204,-0.0237,-0.0249,-0.0274,-0.0341,-0.0349,-0.0395,-0.0497,-0.0503,-0.0488,-0.0534,-0.0553,-0.0581,-0.0543,-0.055,-0.059,-0.0573,-0.0626,-0.0632,-0.064,-0.0645,-0.0655,-0.0556,-0.0557,-0.0559,-0.056,0,-0.0177,-0.0174,-0.015,-0.0221,-0.0234,-0.0238,-0.0308,-0.0309,-0.0326,-0.0401,-0.0374,-0.0416,-0.0459,-0.0423,-0.046,-0.0493,-0.0484,-0.055,-0.0654,-0.0625,-0.0632,-0.0646,-0.0539,-0.0543,-0.0547,-0.055,0,0,-0.0189,-0.0184,-0.0175,-0.0146,-0.0206,-0.0213,-0.0245,-0.0298,-0.0291,-0.0345,-0.0353,-0.0361,-0.0351,-0.0395,-0.0402,-0.0511,-0.0514,-0.0541,-0.0552,-0.0515,-0.0663,-0.0598,-0.0608,-0.0565,-0.0569,-0.0572,-0.0598,0,-0.0199,-0.0185,-0.0219,-0.0191,-0.0143,-0.0176,-0.0199,-0.0247,-0.0263,-0.0274,-0.0327,-0.0303,-0.0353,-0.029,-0.0412,-0.0479,-0.0563,-0.0498,-0.0732,-0.0739,-0.0662,-0.063,-0.0583,-0.0602,-0.0614,-0.0616,-0.0618,0,-0.0232,-0.0215,-0.0165,-0.0098,-0.0072,-0.0085,-0.0056,-0.0096,-0.0144,-0.0129,-0.0166,-0.0191,-0.0283,-0.0329,-0.0536,-0.0473,-0.0568,-0.0658,-0.0662,-0.0734,-0.0707,-0.0667,-0.063,-0.0644,-0.0642,-0.064,-0.0639,0,-0.0196,-0.0157,-0.0101,-0.0091,-0.0059,-0.0015,-0.0009,-0.0029,-0.0006,-0.0027,0.0022,-0.0122,-0.0118,-0.0336,-0.048,-0.0499,-0.0713,-0.0768,-0.0812,-0.0803,-0.0894,-0.0887,-0.097,-0.097,-0.097,-0.097,-0.0969,0,-0.0187,-0.0128,-0.005,-0.0014,0.0082,0.0087,0.017,0.0169,0.0179,0.0226,0.0126,0.0144,-0.0127,-0.0257,-0.0455,-0.0643,-0.0693,-0.0828,-0.0839,-0.079,-0.0775,-0.0961,-0.096,-0.097,-0.097,-0.097,-0.097,0,-0.013,-0.0099,-0.0004,0.0077,0.0119,0.0205,0.0301,0.0354,0.0372,0.0431,0.0449,0.0345,0.019,-0.0066,-0.0368,-0.0545,-0.0772,-0.0828,-0.0687,-0.0684,-0.079,-0.0776,-0.0907,-0.0905,-0.0904,-0.0903,-0.0903,0,-0.0096,-0.0042,0.0086,0.0166,0.0224,0.034,0.0416,0.0455,0.0513,0.0556,0.0595,0.05,0.0425,0.0052,-0.0289,-0.0606,-0.0691,-0.0739,-0.0831,-0.0803,-0.08,-0.0787,-0.0775,-0.0795,-0.0793,-0.0792,-0.0791,0,-0.0029,0.0024,0.0096,0.0259,0.0381,0.0499,0.0619,0.069,0.0736,0.0794,0.0847,0.0798,0.0491,0.0159,-0.0234,-0.0447,-0.0695,-0.072,-0.0781,-0.0807,-0.0699,-0.0694,-0.0687,-0.0779,-0.078,-0.0781,-0.0782,-0.0782,0.0032,0.0102,0.0209,0.0367,0.0501,0.0658,0.0761,0.0875,0.0984,0.11,0.1016,0.0926,0.0502,-0.0034,-0.0298,-0.0545,-0.0609,-0.0746,-0.0751,-0.0757,-0.073,-0.0625,-0.068,-0.068,-0.0681,-0.0681,-0.0682,0,0.0114,0.0186,0.0316,0.0505,0.0656,0.0718,0.089,0.1001,0.1158,0.118,0.1226,0.0749,0.0421,0.0031,-0.033,-0.0587,-0.0614,-0.0634,-0.0651,-0.0661,-0.0671,-0.064,-0.0566,-0.0566,-0.0566,-0.0566,0,0,0.0171,0.0289,0.035,0.0608,0.0746,0.0934,0.1039,0.1221,0.1257,0.1252,0.1132,0.0947,0.0384,0.0094,-0.0227,-0.0358,-0.043,-0.0367,-0.044,-0.043,-0.0435,-0.0724,-0.0687,0,0,0,0,0]}],[{"header":{"parameterUnit":"m.s-1","parameterCategory":2,"la1":30.2991,"la2":30.254,"lo1":-89.0895,"lo2":-89.0444,"dy":0.0017,"dx":0.0017,"nx":28,"ny":28,"refTime":"2023-07-22T03:00:00:Z","depth":"4","parameterNumber":2,"parameterNumberName":"U-component_of_CURRENTS"},"data":[0,0,0,0,0,0,0,0,0,0,0,0,0,0,0,0,0,0,0,0,0,0,0,0,0,0,0,0,0,0,0,0,0,0,0,0,0,0,0,0,0,0,0,0,0,0,0,0,0,0,0,0,0,0,0,0,0,0,0.0335,0.0335,0,0.0296,0.0295,0.0295,0.0263,0.0263,0.0263,0.0262,0.0278,0.0278,0.0279,0,0,0,0,0,0,0,0,0,0,0,0,0,0.0298,0.0299,0.0335,0.0335,0.0335,0.0296,0.0295,0.0295,0.0263,0.0263,0.0263,0.0262,0.0278,0.0278,0.0279,0,0,0,0,0,0,0,0,0,0,0,0,0,0.029,0.0299,0.0335,0.0316,0.0314,0.0296,0.0295,0.0294,0.0263,0.0263,0.0262,0.0262,0.0277,0.0278,0.0279,0.0287,0,0,0.0281,0.0282,0,0,0,0,0,0,0,0,0.029,0.0291,0.0319,0.0317,0.0315,0.0286,0.0288,0.0296,0.0263,0.028,0.0262,0.0262,0.0287,0.0287,0.0276,0.0288,0.0288,0.0281,0.0282,0.0282,0.0282,0,0,0,0,0,0,0,0.0291,0.0292,0.0317,0.0319,0.0317,0.028,0.028,0.0288,0.0284,0.0278,0.0276,0.0276,0.0286,0.0275,0.0276,0.0289,0.0281,0.0282,0.0282,0.0283,0.0341,0.0342,0,0,0,0,0,0,0.0306,0.0293,0.0319,0.0316,0.0305,0.0282,0.0281,0.0294,0.0283,0.0281,0.0276,0.0275,0.0274,0.0276,0.0277,0.0318,0.0282,0.0283,0.0283,0.034,0.0341,0.0343,0,0,0,0,0,0,0.0305,0.0309,0.032,0.0304,0.0304,0.0284,0.0298,0.0293,0.0299,0.0281,0.028,0.0289,0.0274,0.0276,0.0295,0.0317,0.0283,0.0284,0.0339,0.034,0.0342,0.038,0,0,0,0,0,0,0.0305,0.0309,0.0314,0.0306,0.0305,0.0327,0.0298,0.0293,0.0299,0.0297,0.0292,0.0292,0.0274,0.0294,0.0296,0.0318,0.0284,0.0337,0.034,0.0341,0.0377,0.0382,0.0387,0,0,0,0,0,0.0304,0.0308,0.0315,0.0317,0.0317,0.0329,0.0325,0.0307,0.0301,0.031,0.0302,0.0293,0.0309,0.0296,0.0298,0.032,0.0336,0.0339,0.0341,0.0375,0.0381,0.0387,0,0,0,0,0,0,0.0287,0.0305,0.0313,0.0322,0.0337,0.0325,0.0323,0.0323,0.0322,0.0321,0.0306,0.0306,0.0326,0.0324,0.0311,0.0344,0.0322,0.0325,0.0347,0.0353,0.0358,0.037,0.0285,0,0,0,0,0,0.0291,0.031,0.0322,0.0336,0.0343,0.0342,0.0342,0.034,0.0341,0.0339,0.0341,0.034,0.0335,0.0346,0.0341,0.0369,0.0364,0.0386,0.0391,0.0395,0.0406,0.0409,0.0416,0.0351,0.0351,0.0351,0,0,0.0289,0.0304,0.0313,0.0335,0.0341,0.0355,0.0341,0.0356,0.037,0.0344,0.0366,0.0356,0.0344,0.0359,0.0371,0.0365,0.0411,0.0398,0.0401,0.0411,0.0413,0.0419,0.0424,0.0352,0.0352,0.0352,0,0,0.0292,0.0314,0.0325,0.0343,0.0364,0.0371,0.0387,0.0397,0.0403,0.0427,0.0402,0.0408,0.0422,0.0407,0.0402,0.0439,0.043,0.0447,0.0491,0.0494,0.0499,0.0503,0.0506,0.0511,0.0458,0.0458,0.0458,0,0.0283,0.0307,0.033,0.0346,0.0361,0.0387,0.0404,0.0417,0.0435,0.0447,0.0445,0.0453,0.044,0.0447,0.0455,0.0449,0.0454,0.0466,0.05,0.0504,0.0508,0.0509,0.0514,0.046,0.046,0.046,0.046,0,0.0292,0.0314,0.0326,0.0363,0.0386,0.041,0.0439,0.0469,0.049,0.05,0.0527,0.051,0.0517,0.0514,0.0495,0.0521,0.0515,0.0496,0.0482,0.0517,0.0516,0.052,0.0463,0.0463,0.0462,0.0461,0,0,0.0258,0.0318,0.0321,0.0348,0.0399,0.0421,0.0464,0.0504,0.0533,0.056,0.059,0.0584,0.0587,0.0582,0.0564,0.0573,0.0595,0.0559,0.0558,0.0558,0.0612,0.0602,0.0605,0.0587,0.0588,0.0589,0.06,0,0.0256,0.0292,0.0323,0.0371,0.0396,0.0445,0.0483,0.0527,0.0565,0.0604,0.0609,0.0627,0.061,0.0616,0.0624,0.0598,0.0608,0.0594,0.0582,0.0582,0.0566,0.061,0.0592,0.0603,0.0604,0.0604,0.0605,0,0.0243,0.0275,0.0314,0.0388,0.0403,0.0439,0.0517,0.0553,0.0614,0.0641,0.0675,0.0682,0.0701,0.0678,0.0679,0.0677,0.0655,0.0637,0.0636,0.0619,0.058,0.0562,0.0612,0.0611,0.061,0.061,0.061,0,0.0208,0.0269,0.0306,0.0329,0.0409,0.0445,0.0496,0.0565,0.0605,0.067,0.0703,0.073,0.0744,0.0735,0.071,0.0702,0.0706,0.068,0.0652,0.0651,0.0636,0.0631,0.0682,0.0682,0.0682,0.0682,0.0682,0,0.019,0.0216,0.0298,0.0316,0.0372,0.0437,0.0501,0.0553,0.0626,0.0668,0.0721,0.0737,0.0762,0.0767,0.0736,0.0716,0.0727,0.0675,0.066,0.0652,0.0649,0.0638,0.0633,0.0682,0.0682,0.0682,0.0682,0,0.0139,0.019,0.0233,0.0321,0.0356,0.0396,0.0505,0.0551,0.0625,0.0681,0.0705,0.0759,0.0768,0.0783,0.0763,0.0747,0.072,0.0701,0.0705,0.0687,0.0657,0.0654,0.0688,0.0688,0.0688,0.0688,0.0688,0,0.0115,0.0132,0.0224,0.026,0.0303,0.0381,0.0437,0.0536,0.0576,0.0668,0.0677,0.0732,0.0756,0.0734,0.074,0.0726,0.0705,0.071,0.0683,0.068,0.0661,0.0658,0.0655,0.0687,0.0687,0.0687,0.0687,0,0.0062,0.0094,0.0136,0.0217,0.0282,0.0351,0.0431,0.0456,0.0557,0.0627,0.0652,0.0683,0.0701,0.0703,0.072,0.0687,0.0724,0.0709,0.0708,0.0683,0.0679,0.0661,0.0658,0.0687,0.0687,0.0687,0.0687,0,0.0017,0.0036,0.0103,0.0175,0.0254,0.0311,0.0357,0.042,0.0478,0.0581,0.0569,0.0624,0.0671,0.068,0.0666,0.068,0.0666,0.0655,0.0657,0.0658,0.0646,0.0637,0.0634,0,0,0,0,0,-0.0029,0.0007,0.0065,0.0151,0.0228,0.0279,0.0356,0.0399,0.0482,0.0493,0.0543,0.0554,0.0594,0.0602,0.0609,0.0645,0.066,0.0653,0.0644,0.0686,0.0686,0.0678,0,0,0,0,0,0,-0.0049,-0.0005,0.0047,0.0125,0.0178,0.0261,0.0308,0.0358,0.0365,0.0443,0.0449,0.0535,0.0552,0.0578,0.0597,0.0608,0.0599,0.0692,0.0692,0.0686,0.0686,0.0686,0.0678,0,0,0,0,0]},{"header":{"parameterUnit":"m.s-1","parameterCategory":2,"la1":30.2991,"la2":30.254,"lo1":-89.0895,"lo2":-89.0444,"dy":0.0017,"dx":0.0017,"nx":28,"ny":28,"refTime":"2023-07-22T03:00:00:Z","depth":"4","parameterNumber":3,"parameterNumberName":"V-component_of_CURRENTS"},"data":[0,0,0,0,0,0,0,0,0,0,0,0,0,0,0,0,0,0,0,0,0,0,0,0,0,0,0,0,0,0,0,0,0,0,0,0,0,0,0,0,0,0,0,0,0,0,0,0,0,0,0,0,0,0,0,0,0,0,-0.0106,-0.0107,0,-0.0182,-0.0183,-0.0184,-0.0284,-0.0285,-0.0287,-0.0288,-0.0435,-0.0437,-0.044,0,0,0,0,0,0,0,0,0,0,0,0,0,-0.0112,-0.0111,-0.0106,-0.0107,-0.0108,-0.0182,-0.0183,-0.0185,-0.0284,-0.0285,-0.0287,-0.0289,-0.0434,-0.0437,-0.044,0,0,0,0,0,0,0,0,0,0,0,0,0,-0.0143,-0.0111,-0.0106,-0.0165,-0.017,-0.0182,-0.0184,-0.0185,-0.0283,-0.0285,-0.0288,-0.029,-0.0433,-0.0437,-0.0441,-0.0421,0,0,-0.0452,-0.0454,0,0,0,0,0,0,0,0,-0.0141,-0.0142,-0.0155,-0.0161,-0.0167,-0.0224,-0.0239,-0.0267,-0.0283,-0.0242,-0.0288,-0.0291,-0.0368,-0.0377,-0.0389,-0.0428,-0.0434,-0.0453,-0.0455,-0.0457,-0.0458,0,0,0,0,0,0,0,-0.0138,-0.014,-0.0138,-0.0156,-0.0163,-0.021,-0.0216,-0.0245,-0.0295,-0.0246,-0.0253,-0.0258,-0.0373,-0.0385,-0.0393,-0.0436,-0.0453,-0.0456,-0.0458,-0.046,-0.058,-0.0581,0,0,0,0,0,0,-0.0119,-0.0137,-0.0136,-0.014,-0.0157,-0.0207,-0.0215,-0.0205,-0.0293,-0.0308,-0.0256,-0.0262,-0.0377,-0.0388,-0.0399,-0.0478,-0.0457,-0.046,-0.0462,-0.0579,-0.058,-0.0581,0,0,0,0,0,0,-0.0118,-0.0117,-0.0133,-0.0141,-0.0146,-0.0204,-0.0193,-0.0206,-0.0256,-0.0299,-0.0316,-0.0298,-0.0379,-0.0393,-0.0461,-0.0481,-0.0462,-0.0465,-0.0578,-0.058,-0.0581,-0.0574,0,0,0,0,0,0,-0.0118,-0.0116,-0.0131,-0.0138,-0.0144,-0.0161,-0.0192,-0.0205,-0.0252,-0.0262,-0.034,-0.0354,-0.0382,-0.0455,-0.0465,-0.0486,-0.0468,-0.0577,-0.0579,-0.0581,-0.0573,-0.0575,-0.0576,0,0,0,0,0,-0.0118,-0.0119,-0.0131,-0.0132,-0.0152,-0.0161,-0.017,-0.022,-0.0252,-0.0274,-0.0334,-0.0353,-0.0473,-0.0459,-0.047,-0.0493,-0.0576,-0.0578,-0.058,-0.0572,-0.0574,-0.0576,0,0,0,0,0,0,-0.0137,-0.0129,-0.0142,-0.0145,-0.0162,-0.0178,-0.0214,-0.0233,-0.0295,-0.0323,-0.0365,-0.0383,-0.045,-0.047,-0.0454,-0.0532,-0.0527,-0.0532,-0.0517,-0.0519,-0.0521,-0.0499,-0.0472,0,0,0,0,0,-0.0141,-0.0145,-0.0142,-0.0154,-0.0163,-0.0192,-0.0214,-0.0239,-0.0278,-0.031,-0.0362,-0.0417,-0.0457,-0.049,-0.0532,-0.0572,-0.0568,-0.0593,-0.0595,-0.0596,-0.0586,-0.0602,-0.0604,-0.0588,-0.0588,-0.0588,0,0,-0.0151,-0.0153,-0.0155,-0.016,-0.0186,-0.0186,-0.0214,-0.0248,-0.0259,-0.0314,-0.0378,-0.043,-0.0471,-0.0522,-0.0553,-0.0548,-0.0597,-0.0599,-0.0599,-0.0589,-0.0604,-0.0606,-0.0607,-0.0589,-0.0589,-0.0589,0,0,-0.015,-0.0176,-0.0168,-0.0178,-0.0206,-0.0219,-0.023,-0.0262,-0.0297,-0.0349,-0.039,-0.0449,-0.0524,-0.0545,-0.0564,-0.0596,-0.0607,-0.0625,-0.0615,-0.0631,-0.0632,-0.0633,-0.0615,-0.0615,-0.0623,-0.0623,-0.0623,0,-0.0161,-0.015,-0.0174,-0.0167,-0.0183,-0.0229,-0.0226,-0.0252,-0.0307,-0.0334,-0.0378,-0.0481,-0.0524,-0.0554,-0.0576,-0.0598,-0.0605,-0.0603,-0.0631,-0.0632,-0.0633,-0.0615,-0.0614,-0.0623,-0.0623,-0.0623,-0.0623,0,-0.0137,-0.0145,-0.0151,-0.0153,-0.0174,-0.019,-0.0211,-0.0257,-0.0317,-0.034,-0.0414,-0.0475,-0.0539,-0.0559,-0.0584,-0.0611,-0.0612,-0.0631,-0.062,-0.0633,-0.0614,-0.0614,-0.0623,-0.0623,-0.0623,-0.0623,0,0,-0.0106,-0.0124,-0.0127,-0.0137,-0.0172,-0.0181,-0.0214,-0.0244,-0.0273,-0.0347,-0.0383,-0.0459,-0.0514,-0.0538,-0.0578,-0.0589,-0.0604,-0.0621,-0.0622,-0.0592,-0.0625,-0.0618,-0.0616,-0.0641,-0.0641,-0.0642,-0.0603,0,-0.0083,-0.0066,-0.0085,-0.0096,-0.0099,-0.0155,-0.0176,-0.0219,-0.028,-0.0332,-0.0391,-0.0453,-0.0496,-0.0549,-0.0568,-0.0604,-0.0606,-0.0611,-0.0626,-0.0626,-0.0608,-0.0616,-0.0642,-0.0603,-0.0602,-0.0602,-0.0602,0,-0.0048,-0.0047,-0.0043,-0.0078,-0.0085,-0.0108,-0.0177,-0.0201,-0.0268,-0.0319,-0.0388,-0.0444,-0.049,-0.053,-0.0571,-0.0582,-0.0605,-0.0615,-0.0615,-0.0609,-0.0618,-0.0592,-0.0601,-0.0601,-0.0601,-0.0601,-0.0601,0,-0.002,-0.0024,-0.003,-0.0038,-0.0075,-0.0111,-0.0151,-0.0216,-0.0239,-0.0327,-0.0358,-0.0427,-0.0473,-0.0515,-0.0565,-0.0583,-0.0586,-0.0612,-0.0606,-0.0604,-0.0623,-0.0623,-0.0622,-0.0622,-0.0622,-0.0623,-0.0623,0,0.0011,0.0004,-0.0028,-0.0031,-0.0061,-0.0105,-0.0151,-0.0201,-0.0257,-0.0267,-0.0364,-0.0378,-0.0479,-0.0502,-0.0545,-0.0569,-0.0576,-0.0595,-0.0599,-0.062,-0.062,-0.0621,-0.0622,-0.0621,-0.0621,-0.0622,-0.0622,0,0.0033,0.002,0.0012,-0.0028,-0.0052,-0.0086,-0.0148,-0.0168,-0.0232,-0.0249,-0.0278,-0.0346,-0.0392,-0.0453,-0.0506,-0.0536,-0.0562,-0.0562,-0.055,-0.0555,-0.0568,-0.0569,-0.0555,-0.0555,-0.0554,-0.0554,-0.0554,0,0.0044,0.0043,0.0014,-0.0001,-0.0033,-0.0084,-0.0111,-0.0169,-0.0171,-0.0209,-0.0196,-0.0262,-0.0309,-0.0358,-0.0442,-0.0511,-0.0526,-0.053,-0.058,-0.0558,-0.0564,-0.0565,-0.0566,-0.0553,-0.0553,-0.0553,-0.0553,0,0.006,0.0045,0.0044,0.0016,-0.0019,-0.0034,-0.0072,-0.0066,-0.0105,-0.013,-0.0135,-0.0202,-0.0242,-0.0332,-0.0394,-0.0442,-0.0532,-0.0527,-0.0529,-0.0575,-0.0555,-0.0562,-0.0563,-0.0552,-0.0552,-0.0552,-0.0552,0,0.0059,0.0062,0.0052,0.0022,0.0005,-0.0004,-0.0021,-0.0026,-0.0039,-0.0065,-0.0052,-0.0137,-0.0188,-0.0292,-0.0336,-0.0405,-0.0432,-0.0451,-0.0458,-0.046,-0.0464,-0.0427,-0.0379,0,0,0,0,0,0.0047,0.0051,0.005,0.0027,0.0025,0.0001,0.0004,-0.0002,-0.0009,0.0001,-0.0033,-0.0074,-0.0186,-0.0235,-0.0302,-0.034,-0.0448,-0.042,-0.0475,-0.0544,-0.0546,-0.0569,0,0,0,0,0,0,0.0036,0.0043,0.0053,0.0038,0.0022,0.0014,0.0011,0.0011,0.0018,0.0005,-0.0051,-0.0084,-0.0192,-0.0151,-0.0303,-0.0326,-0.0366,-0.0475,-0.0476,-0.0543,-0.0545,-0.0546,-0.057,0,0,0,0,0]}]]